#timestamp,LO_Frequency,Hit,StdDev 
1587405615.5,286047001.8,N
1587405635.4,286047001.4,N
1587405655.2,286046999.8,N
1587405675.1,286047003.6,N
1587405676.0,286047003.6,N
1587405695.8,286047006.0,N
1587405715.6,286047005.8,N
1587405735.5,286047001.8,N
1587405755.3,286047003.5,N
1587405775.2,286047002.1,N
1587405795.9,286047003.5,N
1587405815.7,286047004.2,N
1587405835.6,286047003.2,N
1587405855.4,286047003.5,N
1587405875.2,286047003.9,N
1587405895.1,286047003.5,N
1587405896.0,286047003.5,N
1587405915.8,286047006.0,Y
1587405935.7,286047001.8,P
1587405955.5,286047002.3,P
1587405975.3,286047000.7,N
1587405995.2,286046998.4,N
1587406015.0,286046999.7,N
1587406015.9,286046999.7,N
1587406035.8,286047004.1,N
1587406055.6,286047002.3,N
1587406075.4,286046999.1,N
1587406095.3,286046999.5,N
1587406115.1,286046999.2,N
1587406135.9,286046999.0,N
1587406155.7,286047000.1,N
1587406175.5,286047000.1,N
1587406195.4,286046999.7,N
1587406215.2,286046999.8,N
1587406235.0,286047002.3,N
1587406236.0,286047002.3,N
1587406255.8,286047000.5,N
1587406275.6,286047002.0,N
1587406295.5,286047002.3,N
1587406315.3,286047001.2,N
1587406335.1,286046998.6,N
1587406355.9,286047001.4,N
1587406375.7,286047003.2,N
1587406395.6,286047001.6,N
1587406415.4,286047005.4,Y
1587406435.2,286047002.2,P
1587406455.1,286047002.5,P
1587406456.0,286047002.5,P
1587406475.8,286047003.2,Y
1587406495.7,286047000.8,P
1587406515.5,286046996.6,P
1587406535.3,286046999.1,N
1587406555.2,286047000.7,N
1587406575.0,286046999.4,N
1587406575.9,286046999.4,N
1587406595.8,286046999.2,N
1587406615.6,286046998.2,N
1587406635.4,286046998.9,N
1587406655.3,286047000.5,N
1587406675.1,286046998.3,N
1587406695.9,286046997.2,N
1587406715.7,286046995.8,N
1587406735.5,286046996.9,N
1587406755.4,286046999.3,N
1587406775.2,286046999.5,N
1587406825.1,286047001.0,E
1587406835.0,286047001.1,N
1587406835.9,286047001.1,P
1587406855.7,286046999.3,P
1587406875.6,286046999.2,N
1587406895.4,286047000.9,N
1587406915.3,286047002.3,N
1587406935.1,286047001.5,N
1587406955.8,286047002.4,N
1587406975.7,286047002.1,N
1587406995.5,286047002.7,N
1587407015.4,286047000.1,N
1587407035.2,286046998.5,N
1587407055.0,286046998.3,N
1587407055.9,286046998.3,N
1587407075.8,286046998.3,N
1587407095.6,286046997.2,N
1587407115.5,286046996.8,N
1587407135.3,286046996.9,N
1587407155.1,286046997.7,N
1587407175.9,286046997.3,N
1587407195.7,286046998.3,N
1587407215.6,286047000.0,N
1587407235.4,286046999.7,N
1587407255.2,286046998.3,N
1587407275.1,286046997.4,N
1587407276.0,286046997.4,N
1587407295.8,286046995.0,N
1587407315.7,286046996.6,N
1587407335.5,286046998.1,N
1587407355.3,286046998.7,N
1587407375.2,286046998.2,N
1587407395.9,286047000.3,N
1587407415.7,286046999.9,N
1587407435.6,286047002.1,N
1587407455.4,286047002.1,N
1587407475.3,286047000.4,N
1587407495.1,286047000.4,N
1587407496.0,286047000.4,N
1587407515.8,286046998.7,N
1587407535.7,286046996.0,N
1587407555.5,286046997.1,N
1587407575.3,286046997.7,N
1587407595.2,286046997.4,N
1587407615.0,286046999.2,N
1587407615.9,286046999.2,N
1587407635.8,286046999.3,N
1587407655.6,286046999.1,N
1587407675.4,286046996.6,N
1587407695.3,286047000.4,N
1587407715.1,286047002.5,N
1587407735.9,286047002.2,N
1587407755.7,286047002.9,N
1587407775.5,286047003.9,N
1587407795.4,286047003.7,N
1587407815.2,286046999.7,N
1587407835.0,286047000.3,N
1587407836.0,286047000.3,N
1587407855.8,286046998.1,N
1587407875.6,286046999.5,N
1587407895.5,286046995.5,N
1587407915.3,286046998.0,N
1587407935.1,286046995.3,N
1587407955.9,286046994.1,N
1587407975.7,286046995.8,N
1587407995.6,286046997.7,N
1587408015.4,286046998.0,N
1587408035.2,286046998.0,N
1587408055.1,286046995.8,N
1587408056.0,286046995.8,N
1587408075.8,286046996.0,N
1587408095.7,286046996.2,N
1587408115.5,286046992.2,Y
1587408135.3,286046990.1,P
1587408155.2,286046991.4,N
1587408175.0,286046990.8,N
1587408175.9,286046990.8,N
1587408195.8,286046990.7,N
1587408215.6,286046989.7,Y
1587408235.4,286046995.5,P
1587408255.3,286046999.6,N
1587408275.1,286046998.2,N
1587408295.9,286046999.4,N
1587408315.7,286046997.5,N
1587408335.5,286046998.4,N
1587408355.4,286046998.6,N
1587408375.2,286046998.2,N
1587408395.0,286046998.7,N
1587408395.9,286046998.7,N
1587408415.8,286046998.7,N
1587408435.6,286046996.8,N
1587408455.5,286046998.0,N
1587408475.3,286046995.3,N
1587408495.1,286046998.0,N
1587408515.9,286046997.3,N
1587408535.7,286046997.1,N
1587408555.5,286046999.3,N
1587408575.4,286046998.9,N
1587408595.2,286046999.4,N
1587408615.1,286046996.6,N
1587408616.0,286046996.6,N
1587408635.8,286046997.3,N
1587408655.6,286046997.5,N
1587408675.5,286046998.0,N
1587408695.3,286046995.8,N
1587408715.2,286046998.0,N
1587408735.9,286046993.9,Y
1587408755.7,286046995.7,P
1587408775.6,286046997.3,N
1587408795.4,286046995.3,P
1587408815.3,286046996.2,Y
1587408835.1,286046999.1,P
1587408836.0,286046999.1,N
1587408855.8,286046998.1,N
1587408875.7,286046999.8,N
1587408895.5,286047001.5,N
1587408915.3,286047003.3,N
1587408935.2,286047006.8,Y
1587408955.0,286047008.7,P
1587408955.9,286047008.7,N
1587408975.8,286047008.9,N
1587408995.6,286047008.0,N
1587409015.5,286047010.8,N
1587409035.3,286047009.5,N
1587409055.1,286047008.2,N
1587409075.9,286047007.7,N
1587409095.7,286047007.0,N
1587409115.5,286047005.7,N
1587409135.4,286047004.7,N
1587409155.2,286047007.0,N
1587409175.1,286047006.2,N
1587409176.0,286047006.2,N
1587409195.8,286047006.6,N
